Location: Lake Almanor
(40.2485°N, 121.1442°W)
Time: 16:13:29
(UTC-08:00)

STARLINK-1109 - Pass Details

Date: 03 February 2020
Orbit: 348 x 350 km, 53.0° (Epoch: 17 February)

Event Time Altitude Azimuth Distance (km) Brightness Sun altitude
Rises 17:52:37 0° 306° (NW) 2,166 7.3 -5.8°
Reaches altitude 10° 17:54:39 10° 303° (WNW) 1,320 6.2 -6.1°
Maximum altitude 17:57:33 59° 222° (SW) 412 3.3 -6.7°
Drops below altitude 10° 18:00:26 10° 142° (SE) 1,313 5.3 -7.2°
Sets 18:02:27 0° 138° (SE) 2,153 6.4 -7.6°
